+ View the NASA Portal
+ Center for Near-Earth Object Studies
IMPORTANT:
The SSD Announcement email list is now available. Major changes are coming in the near future, including possible hostname and/or URL changes. To be notified of such changes, subscribe to this email list.
Please visit
this page
for more details.
Don't show this message again
JPL Small-Body Database Browser
Search:
[
help
]
344165 (2000 YN87)
Classification:
Main-belt Asteroid
SPK-ID:
2344165
[
Ephemeris
|
Orbit Diagram
|
Orbital Elements
|
Mission Design
|
Physical Parameters
|
Discovery Circumstances
]
[ show orbit diagram ]
Orbital Elements at Epoch 2458600.5 (2019-Apr-27.0) TDB
Reference:
JPL 11
(heliocentric ecliptic J2000)
Element
Value
Uncertainty (1-sigma)
Units
e
.2130574694709882
8.9269e-08
a
2.522364315548206
2.4736e-08
au
q
1.984955757393584
2.3158e-07
au
i
2.17860674872248
6.8734e-06
deg
node
324.6226558282697
0.00023724
deg
peri
100.8881006774741
0.00023778
deg
M
225.7831317673632
2.6275e-05
deg
t
p
2459146.025112601206
(2020-Oct-23.52511260)
0.00011278
TDB
period
1463.221747925415
4.01
2.1524e-05
5.893e-08
d
yr
n
.2460324284479883
3.6191e-09
deg/d
Q
3.059772873702828
3.0006e-08
au
Orbit Determination Parameters
# obs. used (total)
218
data-arc span
6819 days (18.67 yr)
first obs. used
2000-11-02
last obs. used
2019-07-05
planetary ephem.
DE431
SB-pert. ephem.
SB431-N16
condition code
0
norm. resid. RMS
.62082
source
ORB
producer
Otto Matic
solution date
2019-Sep-24 06:29:19
Additional Information
Earth MOID
= .999704 au
Jupiter MOID
= 2.26249 au
T_jup
= 3.422
[ show covariance matrix ]
[
Ephemeris
|
Orbit Diagram
|
Orbital Elements
|
Mission Design
|
Physical Parameters
|
Discovery Circumstances
]
Physical Parameter Table
Parameter
Symbol
Value
Units
Sigma
Reference
Notes
absolute magnitude
H
16.2
n/a
MPO440550
344165 (2000 YN87)
Discovered 2000-Dec-30 by LINEAR at Socorro
Reference:
20121128/Numbers.arc
Last Updated:
2012-12-03
[
Ephemeris
|
Orbit Diagram
|
Orbital Elements
|
Mission Design
|
Physical Parameters
|
Discovery Circumstances
]
2019-Dec-08 06:18 UT
(server date/time)
Site Manager:
Ryan S. Park
Webmaster
:
Alan B. Chamberlin